Location: Melbourne
(37.8170°S, 144.9670°E)
Time: 08:26:44
(UTC+11:00)

Transit 2A - All Passes

Search period start: 27 November 2014 00:00
Search period end: 07 December 2014 00:00
Orbit: 596 x 966 km, 66.7° (Epoch: 26 November)

Date Brightness Start Highest point End Pass type
(mag) Time Alt. Az. Time Alt. Az. Time Alt. Az.
27 Nov - 06:24:57 10° NE 06:27:37 14° ENE 06:30:36 10° ESE daylight
27 Nov - 08:04:12 10° NNW 08:10:27 86° WSW 08:16:17 10° SSE daylight
27 Nov - 09:50:55 10° W 09:54:31 16° SW 09:57:46 10° S daylight
27 Nov - 16:54:19 10° SSW 16:58:53 47° ESE 17:03:09 10° NE daylight
27 Nov - 18:39:01 10° WSW 18:41:37 15° WNW 18:43:56 10° NW daylight
28 Nov - 07:30:41 10° NNW 07:36:52 68° ENE 07:42:39 10° SSE daylight
28 Nov - 09:16:03 10° W 09:20:38 21° SW 09:24:49 10° S daylight
28 Nov - 16:20:57 10° S 16:25:10 31° SE 16:29:09 10° ENE daylight
28 Nov - 18:04:32 10° SW 18:08:11 23° WNW 18:11:36 10° NNW daylight
29 Nov - 06:57:24 10° N 07:03:19 47° ENE 07:08:54 10° SE daylight
29 Nov - 08:41:32 10° WNW 08:46:48 28° SW 08:51:39 10° S daylight
29 Nov - 15:47:43 10° S 15:51:22 22° SE 15:54:53 10° E daylight
29 Nov - 17:30:29 10° SW 17:34:45 36° WNW 17:38:43 10° N daylight
30 Nov - 06:24:22 10° N 06:29:47 33° ENE 06:35:00 10° SE daylight
30 Nov - 08:07:18 10° NW 08:13:02 39° SW 08:18:20 10° SSE daylight
30 Nov - 15:14:45 10° S 15:17:29 15° SE 15:20:15 10° E daylight
30 Nov - 16:56:40 10° SW 17:01:14 59° WNW 17:05:31 10° NNE daylight
01 Dec - 05:51:40 10° NNE 05:56:16 23° ENE 06:00:52 10° ESE daylight
01 Dec - 07:33:17 10° NW 07:39:20 54° WSW 07:44:56 10° SSE daylight
01 Dec - 14:42:28 10° SSE 14:43:31 11° SE 14:44:46 10° SE daylight
01 Dec - 16:22:59 10° SSW 16:27:41 87° ESE 16:32:03 10° NNE daylight
02 Dec - 05:19:30 10° NE 05:22:48 16° ENE 05:26:18 10° ESE daylight
02 Dec - 06:59:28 10° NNW 07:05:41 77° WSW 07:11:26 10° SSE daylight
02 Dec - 08:46:48 10° WSW 08:49:51 14° SW 08:52:32 10° SSW daylight
02 Dec - 15:49:27 10° SSW 15:54:03 55° ESE 15:58:21 10° NE daylight
02 Dec - 17:34:49 10° W 17:36:41 12° WNW 17:38:18 10° NW daylight
03 Dec - 06:25:53 10° NNW 06:32:04 77° ENE 06:37:50 10° SSE daylight
03 Dec - 08:11:44 10° W 08:15:55 19° SW 08:19:44 10° S daylight
03 Dec - 15:16:02 10° SSW 15:20:21 36° SE 15:24:25 10° ENE daylight
03 Dec - 16:59:57 10° WSW 17:03:16 20° WNW 17:06:20 10° NNW daylight
04 Dec - 05:52:30 10° N 05:58:30 54° ENE 06:04:07 10° SE daylight
04 Dec - 07:37:05 10° WNW 07:42:04 25° SW 07:46:38 10° S daylight
04 Dec - 14:42:45 10° S 14:46:34 24° SE 14:50:14 10° ENE daylight
04 Dec - 16:25:46 10° SW 16:29:49 31° WNW 16:33:36 10° N daylight
05 Dec - 05:19:22 10° N 05:24:57 37° ENE 05:30:15 10° SE daylight
05 Dec - 07:02:44 10° WNW 07:08:16 34° SW 07:13:22 10° S daylight
05 Dec - 14:09:40 10° S 14:12:42 17° SE 14:15:43 10° E daylight
05 Dec - 15:51:52 10° SW 15:56:19 49° WNW 16:00:30 10° N daylight
06 Dec - 04:46:32 10° NNE 04:51:25 26° ENE 04:56:12 10° SE visible
06 Dec - 06:28:37 10° NW 06:34:32 48° WSW 06:39:59 10° SSE daylight
06 Dec - 13:37:02 10° SSE 13:38:45 12° SE 13:40:38 10° ESE daylight
06 Dec - 15:18:08 10° SSW 15:22:46 80° WNW 15:27:06 10° NNE daylight
